一网星座-0420星 (ONEWEB-0420 )

导读 | 星芒AI

ONEWEB-0420 是 OneWeb 卫星星座计划中的一颗低轨通信卫星,主要用于提供全球宽带互联网服务。该卫星采用标准化设计,具备高容量通信能力,支持偏远地区和航空、航海等移动场景的网络连接。作为 OneWeb 卫星网络的一部分,它运行在约 1200 公里的轨道高度,与其他卫星协同工作,实现全球覆盖。该卫星的发射有助于增强 OneWeb 在全球卫星互联网市场的竞争力,并推动其在数字连接和通信基础设施建设中的作用。

基本信息
目录编号:
50495
目录名称:
ONEWEB-0420
国际标识:
2021-132AC
轨道中心:
EARTH
卫星名称:
一网星座-0420星
卫星全名:
一网星座-0420星 (ONEWEB-0420 )
卫星状态:
在轨 (已飞行1449 天)
发射日期:
2021-12-27 UTC
国别 :
英国 (GB)
星等 :
--
轨道信息
数据来源 国际轨道数据
星历时间: 2025-12-15T03:00:43+0800
1天前
查看轨道信息
半长轴: 7567.885km
偏心率: 0.0001885
轨道倾角: 87.918°
近地点辐角 89.298°
升交点赤经 12.085°
平近点角 270.837°
近地点: 1188.323km
远地点: 1191.177km
周期: 109.200分钟
每日圈数: 13.186848
详细信息
平衡模式:
三轴稳定
覆盖范围:
全球
运营商:
一网卫星公司
运营商所在国:
英国
制造商(研发单位):
一网卫星公司
制造商所在国:
英国
使用方式:
暂无
卫星简介
OneWeb卫星网络由648颗重约125公斤的微型卫星组成,运行在1200公里的轨道上。 每颗卫星都能够提供至少每秒8千兆位的吞吐量,以使用其高吞吐量的Ku频段有效载荷为家庭和移动平台提供互联网接入。该卫星仍在工作。
2D轨道图
3D轨道图
轨道高度分析图
轨道倾角分析图
轨道综合分析图
查看轨道综合分析图